| time (UTC) | temp C | wind direction | speed KPH | gust KPH | rain 1hr cm | rain 24hr cm | rain mn cm | humidity % | barometer mb |
| 20260507231448 | 16 | 294 | 4.8 | 6.4 | 0.00 | 0.00 | 0.00 | 37 | 1009.6 |
| 20260507230945 | 16 | 259 | 3.2 | 4.8 | 0.00 | 0.00 | 0.00 | 37 | 1009.5 |
| 20260507230443 | 16 | 25 | 4.8 | 9.7 | 0.00 | 0.00 | 0.00 | 37 | 1009.4 |
| 20260507225938 | 17 | 257 | 6.4 | 12.9 | 0.00 | 0.00 | 0.00 | 35 | 1009.5 |
| 20260507225434 | 17 | 315 | 4.8 | 14.5 | 0.00 | 0.00 | 0.00 | 35 | 1009.1 |
| 20260507224930 | 17 | 298 | 3.2 | 12.9 | 0.00 | 0.00 | 0.00 | 36 | 1009.0 |
| 20260507224426 | 18 | 321 | 1.6 | 6.4 | 0.00 | 0.00 | 0.00 | 35 | 1009.0 |
| 20260507223923 | 18 | 296 | 1.6 | 12.9 | 0.00 | 0.00 | 0.00 | 34 | 1009.0 |
| 20260507223414 | 19 | 308 | 3.2 | 9.7 | 0.00 | 0.00 | 0.00 | 34 | 1008.9 |
| 20260507222911 | 19 | 286 | 0.0 | 4.8 | 0.00 | 0.00 | 0.00 | 34 | 1009.0 |
| 20260507222408 | 19 | 336 | 4.8 | 9.7 | 0.00 | 0.00 | 0.00 | 33 | 1008.7 |
| 20260507221905 | 20 | 297 | 1.6 | 16.1 | 0.00 | 0.00 | 0.00 | 34 | 1008.5 |
| 20260507221401 | 20 | 344 | 1.6 | 16.1 | 0.00 | 0.00 | 0.00 | 35 | 1008.6 |
| 20260507220857 | 17 | 286 | 4.8 | 14.5 | 0.00 | 0.00 | 0.00 | 36 | 1008.4 |
| 20260507220355 | 18 | 357 | 0.0 | 9.7 | 0.00 | 0.00 | 0.00 | 36 | 1008.4 |
| 20260507215852 | 18 | 294 | 1.6 | 14.5 | 0.00 | 0.00 | 0.00 | 35 | 1008.5 |
| 20260507215348 | 19 | 341 | 1.6 | 4.8 | 0.00 | 0.00 | 0.00 | 36 | 1008.2 |
| 20260507214845 | 18 | 15 | 4.8 | 9.7 | 0.00 | 0.00 | 0.00 | 35 | 1008.3 |
| 20260507214343 | 18 | 64 | 4.8 | 14.5 | 0.00 | 0.00 | 0.00 | 34 | 1008.2 |
| 20260507213843 | 18 | 27 | 3.2 | 11.3 | 0.00 | 0.00 | 0.00 | 36 | 1008.1 |
| 20260507213335 | 18 | 49 | 4.8 | 9.7 | 0.00 | 0.00 | 0.00 | 35 | 1008.2 |
| 20260507212832 | 18 | 32 | 6.4 | 9.7 | 0.00 | 0.00 | 0.00 | 33 | 1008.1 |
| 20260507212328 | 18 | 287 | 6.4 | 9.7 | 0.00 | 0.00 | 0.00 | 34 | 1008.1 |
| 20260507211824 | 19 | 268 | 4.8 | 4.8 | 0.00 | 0.00 | 0.00 | 34 | 1008.0 |
| 20260507211321 | 19 | 327 | 4.8 | 9.7 | 0.00 | 0.00 | 0.00 | 32 | 1007.9 |
| 20260507210817 | 17 | 355 | 1.6 | 4.8 | 0.00 | 0.00 | 0.00 | 37 | 1008.1 |
| 20260507210310 | 18 | 307 | 4.8 | 11.3 | 0.00 | 0.00 | 0.00 | 35 | 1007.7 |
| 20260507205805 | 19 | 336 | 0.0 | 3.2 | 0.00 | 0.00 | 0.00 | 36 | 1007.8 |
| 20260507205306 | 18 | 276 | 1.6 | 9.7 | 0.00 | 0.00 | 0.00 | 37 | 1007.9 |
| 20260507204759 | 19 | 337 | 4.8 | 6.4 | 0.00 | 0.00 | 0.00 | 34 | 1007.9 |
| 20260507204256 | 20 | 337 | 3.2 | 11.3 | 0.00 | 0.00 | 0.00 | 33 | 1007.9 |
| 20260507203754 | 20 | 328 | 4.8 | 9.7 | 0.00 | 0.00 | 0.00 | 33 | 1007.8 |
| 20260507203252 | 20 | 352 | 4.8 | 16.1 | 0.00 | 0.00 | 0.00 | 35 | 1008.0 |
| 20260507202748 | 19 | 5 | 1.6 | 6.4 | 0.00 | 0.00 | 0.00 | 38 | 1008.0 |
| 20260507202244 | 19 | 345 | 4.8 | 11.3 | 0.00 | 0.00 | 0.00 | 34 | 1008.1 |
| 20260507201738 | 19 | 357 | 1.6 | 12.9 | 0.00 | 0.00 | 0.00 | 35 | 1007.9 |
| 20260507201236 | 20 | 341 | 1.6 | 6.4 | 0.00 | 0.00 | 0.00 | 37 | 1008.0 |
| 20260507200732 | 20 | 221 | 3.2 | 9.7 | 0.00 | 0.00 | 0.00 | 36 | 1007.9 |
| 20260507200228 | 19 | 46 | 6.4 | 9.7 | 0.00 | 0.00 | 0.00 | 33 | 1007.9 |
| 20260507195724 | 20 | 300 | 3.2 | 6.4 | 0.00 | 0.00 | 0.00 | 36 | 1008.1 |
| 20260507195222 | 20 | 346 | 3.2 | 12.9 | 0.00 | 0.00 | 0.00 | 35 | 1008.0 |
| 20260507194719 | 20 | 34 | 4.8 | 14.5 | 0.00 | 0.00 | 0.00 | 35 | 1008.1 |
| 20260507194215 | 20 | 276 | 3.2 | 12.9 | 0.00 | 0.00 | 0.00 | 36 | 1008.0 |
| 20260507193712 | 20 | 278 | 3.2 | 11.3 | 0.00 | 0.00 | 0.00 | 33 | 1008.1 |
| 20260507193208 | 20 | 295 | 3.2 | 6.4 | 0.00 | 0.00 | 0.00 | 35 | 1008.2 |
| 20260507192704 | 20 | 334 | 11.3 | 17.7 | 0.00 | 0.00 | 0.00 | 34 | 1007.9 |
| 20260507192156 | 21 | 353 | 4.8 | 9.7 | 0.00 | 0.00 | 0.00 | 36 | 1007.9 |
| 20260507191651 | 19 | 326 | 4.8 | 11.3 | 0.00 | 0.00 | 0.00 | 36 | 1008.1 |
| 20260507191148 | 21 | 22 | 6.4 | 17.7 | 0.00 | 0.00 | 0.00 | 35 | 1007.8 |
| 20260507190645 | 21 | 44 | 3.2 | 9.7 | 0.00 | 0.00 | 0.00 | 34 | 1008.1 |
| 20260507190144 | 20 | 274 | 3.2 | 11.3 | 0.00 | 0.00 | 0.00 | 36 | 1008.0 |
| 20260507185642 | 20 | 219 | 8.0 | 11.3 | 0.00 | 0.00 | 0.00 | 37 | 1008.1 |
| 20260507185138 | 20 | 15 | 1.6 | 12.9 | 0.00 | 0.00 | 0.00 | 37 | 1008.0 |
| 20260507184636 | 20 | 301 | 8.0 | 11.3 | 0.00 | 0.00 | 0.00 | 37 | 1008.0 |
| 20260507184134 | 20 | 335 | 1.6 | 3.2 | 0.00 | 0.00 | 0.00 | 36 | 1008.1 |
| 20260507183630 | 20 | 31 | 8.0 | 11.3 | 0.00 | 0.00 | 0.00 | 34 | 1008.2 |
| 20260507183127 | 20 | 28 | 4.8 | 9.7 | 0.00 | 0.00 | 0.00 | 41 | 1008.0 |
| 20260507182624 | 20 | 35 | 6.4 | 9.7 | 0.00 | 0.00 | 0.00 | 34 | 1008.1 |
| 20260507182120 | 20 | 236 | 3.2 | 6.4 | 0.00 | 0.00 | 0.00 | 36 | 1008.2 |
| 20260507181617 | 20 | 238 | 9.7 | 14.5 | 0.00 | 0.00 | 0.00 | 35 | 1008.1 |
| 20260507181113 | 20 | 246 | 6.4 | 6.4 | 0.00 | 0.00 | 0.00 | 36 | 1008.3 |
| 20260507180609 | 19 | 250 | 4.8 | 11.3 | 0.00 | 0.00 | 0.00 | 37 | 1008.4 |
| 20260507180107 | 19 | 249 | 3.2 | 12.9 | 0.00 | 0.00 | 0.00 | 39 | 1008.3 |
| 20260507175602 | 19 | 308 | 4.8 | 9.7 | 0.00 | 0.00 | 0.00 | 40 | 1008.5 |
| 20260507175100 | 20 | 311 | 3.2 | 4.8 | 0.00 | 0.00 | 0.00 | 37 | 1008.6 |
| 20260507174557 | 20 | 308 | 6.4 | 11.3 | 0.00 | 0.00 | 0.00 | 37 | 1008.7 |
| 20260507174055 | 20 | 225 | 4.8 | 4.8 | 0.00 | 0.00 | 0.00 | 37 | 1008.6 |
| 20260507173552 | 19 | 5 | 3.2 | 11.3 | 0.00 | 0.00 | 0.00 | 42 | 1008.6 |
| 20260507173049 | 19 | 185 | 11.3 | 16.1 | 0.00 | 0.00 | 0.00 | 41 | 1008.8 |
| 20260507172544 | 19 | 259 | 3.2 | 14.5 | 0.00 | 0.00 | 0.00 | 42 | 1008.9 |
| 20260507172042 | 18 | 32 | 1.6 | 12.9 | 0.00 | 0.00 | 0.00 | 49 | 1008.9 |
| 20260507171537 | 18 | 13 | 3.2 | 9.7 | 0.00 | 0.00 | 0.00 | 40 | 1009.1 |
| 20260507171034 | 19 | 251 | 11.3 | 17.7 | 0.00 | 0.00 | 0.00 | 42 | 1009.0 |
| 20260507170531 | 18 | 289 | 3.2 | 6.4 | 0.00 | 0.00 | 0.00 | 41 | 1009.0 |
| 20260507170028 | 19 | 17 | 6.4 | 12.9 | 0.00 | 0.00 | 0.00 | 42 | 1009.2 |
| 20260507165524 | 18 | 338 | 3.2 | 11.3 | 0.00 | 0.00 | 0.00 | 41 | 1009.5 |
| 20260507165020 | 18 | 5 | 6.4 | 9.7 | 0.00 | 0.00 | 0.00 | 41 | 1009.5 |
| 20260507164516 | 18 | 266 | 1.6 | 6.4 | 0.00 | 0.00 | 0.00 | 47 | 1009.5 |
| 20260507164014 | 18 | 328 | 6.4 | 9.7 | 0.00 | 0.00 | 0.00 | 40 | 1009.7 |
| 20260507163511 | 18 | 227 | 6.4 | 11.3 | 0.00 | 0.00 | 0.00 | 43 | 1009.6 |
| 20260507163009 | 18 | 309 | 6.4 | 9.7 | 0.00 | 0.00 | 0.00 | 47 | 1009.8 |
| 20260507162508 | 17 | 188 | 1.6 | 6.4 | 0.00 | 0.00 | 0.00 | 51 | 1009.8 |
| 20260507162006 | 17 | 281 | 1.6 | 6.4 | 0.00 | 0.00 | 0.00 | 44 | 1010.1 |
| 20260507161502 | 17 | 348 | 3.2 | 11.3 | 0.00 | 0.00 | 0.00 | 48 | 1010.1 |
| 20260507160959 | 16 | 152 | 0.0 | 4.8 | 0.00 | 0.00 | 0.00 | 50 | 1010.1 |
| 20260507160455 | 16 | 203 | 4.8 | 9.7 | 0.00 | 0.00 | 0.00 | 48 | 1009.9 |
| 20260507155950 | 16 | 153 | 3.2 | 11.3 | 0.00 | 0.00 | 0.00 | 47 | 1010.2 |
| 20260507155447 | 16 | 157 | 8.0 | 9.7 | 0.00 | 0.00 | 0.00 | 49 | 1010.2 |
| 20260507154944 | 15 | 336 | 1.6 | 6.4 | 0.00 | 0.00 | 0.00 | 47 | 1010.3 |
| 20260507154440 | 15 | 259 | 3.2 | 3.2 | 0.00 | 0.00 | 0.00 | 49 | 1010.4 |
| 20260507153938 | 15 | 296 | 1.6 | 6.4 | 0.00 | 0.00 | 0.00 | 47 | 1010.6 |
| 20260507153435 | 16 | 223 | 4.8 | 9.7 | 0.00 | 0.00 | 0.00 | 49 | 1010.6 |
| 20260507152931 | 15 | 297 | 3.2 | 4.8 | 0.00 | 0.00 | 0.00 | 50 | 1010.7 |
| 20260507152427 | 15 | 27 | 4.8 | 4.8 | 0.00 | 0.00 | 0.00 | 48 | 1010.7 |
| 20260507151923 | 13 | 295 | 0.0 | 6.4 | 0.00 | 0.00 | 0.00 | 54 | 1010.7 |
| 20260507151420 | 13 | 18 | 1.6 | 9.7 | 0.00 | 0.00 | 0.00 | 51 | 1010.8 |
| 20260507150917 | 14 | 26 | 4.8 | 6.4 | 0.00 | 0.00 | 0.00 | 50 | 1011.0 |
| 20260507150413 | 14 | 30 | 4.8 | 6.4 | 0.00 | 0.00 | 0.00 | 50 | 1010.9 |
| 20260507145910 | 15 | 52 | 3.2 | 4.8 | 0.00 | 0.00 | 0.00 | 54 | 1011.1 |
| 20260507145406 | 13 | 12 | 1.6 | 4.8 | 0.00 | 0.00 | 0.00 | 54 | 1011.1 |
| 20260507144903 | 14 | 21 | 0.0 | 4.8 | 0.00 | 0.00 | 0.00 | 54 | 1011.2 |
| 20260507144400 | 13 | 194 | 6.4 | 6.4 | 0.00 | 0.00 | 0.00 | 53 | 1011.0 |
| 20260507143857 | 12 | 283 | 3.2 | 9.7 | 0.00 | 0.00 | 0.00 | 55 | 1011.6 |
| 20260507143354 | 12 | 48 | 1.6 | 4.8 | 0.00 | 0.00 | 0.00 | 60 | 1011.5 |
| 20260507142850 | 12 | 58 | 1.6 | 3.2 | 0.00 | 0.00 | 0.00 | 59 | 1011.7 |
| 20260507142347 | 12 | 29 | 0.0 | 4.8 | 0.00 | 0.00 | 0.00 | 59 | 1011.7 |
| 20260507141843 | 12 | 4 | 1.6 | 4.8 | 0.00 | 0.00 | 0.00 | 59 | 1011.6 |
| 20260507141340 | 12 | 358 | 1.6 | 3.2 | 0.00 | 0.00 | 0.00 | 64 | 1011.6 |
| 20260507140837 | 12 | 70 | 3.2 | 4.8 | 0.00 | 0.00 | 0.00 | 62 | 1011.9 |
| 20260507140333 | 12 | 37 | 3.2 | 6.4 | 0.00 | 0.00 | 0.00 | 63 | 1012.0 |
| 20260507135831 | 12 | 67 | 1.6 | 3.2 | 0.00 | 0.00 | 0.00 | 61 | 1011.9 |
| 20260507135328 | 12 | 16 | 4.8 | 4.8 | 0.00 | 0.00 | 0.00 | 61 | 1012.2 |
| 20260507134825 | 12 | 24 | 0.0 | 1.6 | 0.00 | 0.00 | 0.00 | 65 | 1012.0 |
| 20260507134321 | 11 | 342 | 0.0 | 3.2 | 0.00 | 0.00 | 0.00 | 64 | 1012.2 |
| 20260507133817 | 12 | 65 | 1.6 | 1.6 | 0.00 | 0.00 | 0.00 | 64 | 1012.1 |
| 20260507133313 | 11 | 10 | 0.0 | 1.6 | 0.00 | 0.00 | 0.00 | 67 | 1012.1 |
| 20260507132812 | 11 | 50 | 6.4 | 6.4 | 0.00 | 0.00 | 0.00 | 67 | 1012.2 |
| 20260507132308 | 11 | 54 | 0.0 | 6.4 | 0.00 | 0.00 | 0.00 | 65 | 1012.4 |
| 20260507131805 | 12 | 67 | 3.2 | 4.8 | 0.00 | 0.00 | 0.00 | 68 | 1012.4 |
| 20260507131302 | 11 | 30 | 1.6 | 6.4 | 0.00 | 0.00 | 0.00 | 70 | 1012.4 |
| 20260507130758 | 11 | 43 | 3.2 | 6.4 | 0.00 | 0.00 | 0.00 | 68 | 1012.4 |
| 20260507130256 | 11 | 80 | 3.2 | 4.8 | 0.00 | 0.00 | 0.00 | 70 | 1012.4 |
| 20260507125755 | 11 | 357 | 4.8 | 6.4 | 0.00 | 0.00 | 0.00 | 69 | 1012.4 |
| 20260507125252 | 11 | 71 | 3.2 | 4.8 | 0.00 | 0.00 | 0.00 | 69 | 1012.4 |
| 20260507124749 | 11 | 36 | 3.2 | 6.4 | 0.00 | 0.00 | 0.00 | 70 | 1012.4 |
| 20260507124245 | 11 | 35 | 6.4 | 6.4 | 0.00 | 0.00 | 0.00 | 68 | 1012.2 |
| 20260507123744 | 11 | 50 | 6.4 | 9.7 | 0.00 | 0.00 | 0.00 | 67 | 1012.4 |
| 20260507123241 | 11 | 34 | 3.2 | 3.2 | 0.00 | 0.00 | 0.00 | 70 | 1012.4 |
| 20260507122736 | 11 | 34 | 4.8 | 6.4 | 0.00 | 0.00 | 0.00 | 68 | 1012.2 |
| 20260507122232 | 11 | 69 | 1.6 | 4.8 | 0.00 | 0.00 | 0.00 | 69 | 1012.4 |
| 20260507121728 | 11 | 45 | 1.6 | 4.8 | 0.00 | 0.00 | 0.00 | 69 | 1012.3 |
| 20260507121224 | 10 | 43 | 3.2 | 9.7 | 0.00 | 0.00 | 0.00 | 68 | 1012.4 |
| 20260507120720 | 11 | 16 | 4.8 | 6.4 | 0.00 | 0.00 | 0.00 | 71 | 1012.2 |
| 20260507120218 | 10 | 49 | 3.2 | 9.7 | 0.00 | 0.00 | 0.00 | 73 | 1012.4 |
| 20260507115713 | 10 | 3 | 6.4 | 11.3 | 0.00 | 0.00 | 0.00 | 71 | 1012.2 |
| 20260507115209 | 10 | 349 | 9.7 | 14.5 | 0.00 | 0.00 | 0.00 | 72 | 1012.3 |
| 20260507114705 | 10 | 26 | 9.7 | 11.3 | 0.00 | 0.00 | 0.00 | 72 | 1012.1 |
| 20260507114203 | 10 | 355 | 9.7 | 11.3 | 0.00 | 0.00 | 0.00 | 71 | 1012.1 |
| 20260507113700 | 10 | 17 | 4.8 | 9.7 | 0.00 | 0.00 | 0.00 | 71 | 1012.0 |
| 20260507113157 | 10 | 50 | 3.2 | 6.4 | 0.00 | 0.00 | 0.00 | 71 | 1012.1 |
| 20260507112654 | 10 | 53 | 3.2 | 6.4 | 0.00 | 0.00 | 0.00 | 71 | 1012.0 |
| 20260507112151 | 10 | 35 | 8.0 | 9.7 | 0.00 | 0.00 | 0.00 | 70 | 1012.0 |
| 20260507111648 | 10 | 36 | 1.6 | 4.8 | 0.00 | 0.00 | 0.00 | 72 | 1011.9 |
| 20260507111145 | 10 | 49 | 3.2 | 4.8 | 0.00 | 0.00 | 0.00 | 72 | 1011.8 |
| 20260507110641 | 10 | 46 | 1.6 | 3.2 | 0.00 | 0.00 | 0.00 | 74 | 1011.6 |
| 20260507110138 | 10 | 47 | 3.2 | 3.2 | 0.00 | 0.00 | 0.00 | 75 | 1011.6 |
| 20260507105635 | 10 | 43 | 1.6 | 1.6 | 0.00 | 0.00 | 0.00 | 77 | 1011.7 |
| 20260507105131 | 10 | 27 | 1.6 | 3.2 | 0.00 | 0.00 | 0.00 | 76 | 1011.7 |
| 20260507104628 | 10 | 26 | 4.8 | 4.8 | 0.00 | 0.00 | 0.00 | 77 | 1011.4 |
| 20260507104125 | 10 | 36 | 3.2 | 3.2 | 0.00 | 0.00 | 0.00 | 78 | 1011.5 |
| 20260507103621 | 10 | 57 | 1.6 | 4.8 | 0.00 | 0.00 | 0.00 | 79 | 1011.5 |
| 20260507103118 | 10 | 15 | 1.6 | 3.2 | 0.00 | 0.00 | 0.00 | 79 | 1011.5 |
| 20260507102614 | 11 | 25 | 3.2 | 4.8 | 0.00 | 0.00 | 0.00 | 79 | 1011.3 |
| 20260507102110 | 11 | 62 | 3.2 | 4.8 | 0.00 | 0.00 | 0.00 | 79 | 1011.2 |
| 20260507101606 | 11 | 15 | 4.8 | 4.8 | 0.00 | 0.00 | 0.00 | 79 | 1011.3 |
| 20260507101102 | 11 | 48 | 4.8 | 4.8 | 0.00 | 0.00 | 0.00 | 79 | 1011.2 |
| 20260507100559 | 11 | 47 | 3.2 | 4.8 | 0.00 | 0.00 | 0.00 | 79 | 1010.9 |
| 20260507100058 | 11 | 21 | 4.8 | 6.4 | 0.00 | 0.00 | 0.00 | 80 | 1010.6 |
| 20260507095555 | 11 | 27 | 3.2 | 6.4 | 0.00 | 0.00 | 0.00 | 80 | 1011.0 |
| 20260507095052 | 11 | 40 | 3.2 | 4.8 | 0.00 | 0.00 | 0.00 | 80 | 1010.9 |
| 20260507094548 | 11 | 36 | 1.6 | 3.2 | 0.00 | 0.00 | 0.00 | 81 | 1011.2 |
| 20260507094045 | 11 | 10 | 1.6 | 3.2 | 0.00 | 0.00 | 0.00 | 80 | 1011.1 |
| 20260507093543 | 10 | 17 | 0.0 | 0.0 | 0.00 | 0.00 | 0.00 | 83 | 1011.1 |
| 20260507093041 | 11 | 40 | 0.0 | 0.0 | 0.00 | 0.00 | 0.00 | 81 | 1010.8 |
| 20260507092537 | 11 | 40 | 0.0 | 0.0 | 0.00 | 0.00 | 0.00 | 80 | 1011.0 |
| 20260507092034 | 11 | 101 | 1.6 | 1.6 | 0.00 | 0.00 | 0.00 | 80 | 1011.0 |
| 20260507091531 | 10 | 102 | 0.0 | 0.0 | 0.00 | 0.00 | 0.00 | 82 | 1011.0 |
| 20260507091027 | 11 | 102 | 0.0 | 0.0 | 0.00 | 0.00 | 0.00 | 82 | 1010.8 |
| 20260507090523 | 11 | 102 | 0.0 | 0.0 | 0.00 | 0.00 | 0.00 | 81 | 1010.8 |
| 20260507090020 | 11 | 102 | 0.0 | 0.0 | 0.00 | 0.00 | 0.00 | 82 | 1010.8 |
| 20260507085517 | 11 | 102 | 0.0 | 0.0 | 0.00 | 0.00 | 0.00 | 80 | 1010.6 |
| 20260507085014 | 11 | 102 | 0.0 | 0.0 | 0.00 | 0.00 | 0.00 | 79 | 1011.0 |
| 20260507084510 | 11 | 102 | 0.0 | 0.0 | 0.00 | 0.00 | 0.00 | 80 | 1011.0 |
| 20260507084007 | 11 | 102 | 0.0 | 0.0 | 0.00 | 0.00 | 0.00 | 81 | 1011.2 |
| 20260507083503 | 11 | 102 | 0.0 | 0.0 | 0.00 | 0.00 | 0.00 | 80 | 1011.1 |
| 20260507083000 | 11 | 102 | 0.0 | 0.0 | 0.00 | 0.00 | 0.00 | 79 | 1011.2 |
| 20260507082456 | 11 | 102 | 0.0 | 0.0 | 0.00 | 0.00 | 0.00 | 79 | 1011.2 |
| 20260507081953 | 11 | 102 | 0.0 | 0.0 | 0.00 | 0.00 | 0.00 | 76 | 1010.9 |
| 20260507081449 | 11 | 102 | 0.0 | 0.0 | 0.00 | 0.00 | 0.00 | 76 | 1010.9 |
| 20260507080946 | 11 | 103 | 0.0 | 1.6 | 0.00 | 0.00 | 0.00 | 76 | 1010.9 |
| 20260507080442 | 11 | 103 | 0.0 | 1.6 | 0.00 | 0.00 | 0.00 | 75 | 1011.1 |
| 20260507075937 | 11 | 102 | 1.6 | 1.6 | 0.00 | 0.00 | 0.00 | 75 | 1011.1 |
| 20260507075434 | 11 | 97 | 1.6 | 1.6 | 0.00 | 0.00 | 0.00 | 75 | 1011.1 |
| 20260507074931 | 11 | 29 | 0.0 | 0.0 | 0.00 | 0.00 | 0.00 | 76 | 1011.1 |
| 20260507074428 | 11 | 28 | 0.0 | 0.0 | 0.00 | 0.00 | 0.00 | 75 | 1011.0 |
| 20260507073925 | 11 | 28 | 0.0 | 0.0 | 0.00 | 0.00 | 0.00 | 75 | 1010.8 |
| 20260507073422 | 11 | 28 | 0.0 | 0.0 | 0.00 | 0.00 | 0.00 | 74 | 1010.7 |
| 20260507072919 | 11 | 29 | 1.6 | 3.2 | 0.00 | 0.00 | 0.00 | 73 | 1010.6 |
| 20260507072416 | 11 | 68 | 0.0 | 1.6 | 0.00 | 0.00 | 0.00 | 71 | 1010.9 |
| 20260507071914 | 11 | 57 | 0.0 | 0.0 | 0.00 | 0.00 | 0.00 | 71 | 1010.8 |
| 20260507071411 | 11 | 65 | 1.6 | 3.2 | 0.00 | 0.00 | 0.00 | 71 | 1010.8 |
| 20260507070906 | 11 | 65 | 0.0 | 1.6 | 0.00 | 0.00 | 0.00 | 72 | 1010.8 |
| 20260507070404 | 11 | 62 | 1.6 | 4.8 | 0.00 | 0.00 | 0.00 | 72 | 1011.2 |
| 20260507065901 | 11 | 70 | 0.0 | 1.6 | 0.00 | 0.00 | 0.00 | 73 | 1010.9 |
| 20260507065357 | 11 | 68 | 0.0 | 0.0 | 0.00 | 0.00 | 0.00 | 73 | 1010.9 |
| 20260507064855 | 11 | 68 | 0.0 | 0.0 | 0.00 | 0.00 | 0.00 | 73 | 1010.7 |
| 20260507064353 | 11 | 68 | 0.0 | 0.0 | 0.00 | 0.00 | 0.00 | 73 | 1010.8 |
| 20260507063851 | 11 | 69 | 0.0 | 0.0 | 0.00 | 0.00 | 0.00 | 73 | 1010.9 |
| 20260507063347 | 11 | 68 | 0.0 | 0.0 | 0.00 | 0.00 | 0.00 | 73 | 1011.1 |
| 20260507062844 | 11 | 68 | 0.0 | 1.6 | 0.00 | 0.00 | 0.00 | 72 | 1011.1 |
| 20260507062341 | 11 | 62 | 1.6 | 3.2 | 0.00 | 0.00 | 0.00 | 72 | 1011.3 |
| 20260507061839 | 11 | 37 | 3.2 | 4.8 | 0.00 | 0.00 | 0.00 | 74 | 1011.4 |
| 20260507061337 | 12 | 44 | 1.6 | 3.2 | 0.00 | 0.00 | 0.00 | 72 | 1011.3 |
| 20260507060835 | 12 | 45 | 1.6 | 3.2 | 0.00 | 0.00 | 0.00 | 73 | 1011.4 |
| 20260507060331 | 11 | 38 | 4.8 | 4.8 | 0.00 | 0.00 | 0.00 | 73 | 1011.6 |
| 20260507055828 | 11 | 5 | 1.6 | 3.2 | 0.00 | 0.00 | 0.00 | 74 | 1011.7 |
| 20260507055323 | 12 | 44 | 3.2 | 9.7 | 0.00 | 0.00 | 0.00 | 73 | 1011.5 |
| 20260507054820 | 12 | 55 | 3.2 | 9.7 | 0.00 | 0.00 | 0.00 | 73 | 1011.7 |
| 20260507054316 | 12 | 47 | 6.4 | 9.7 | 0.00 | 0.00 | 0.00 | 73 | 1011.6 |
| 20260507053814 | 12 | 75 | 1.6 | 4.8 | 0.00 | 0.00 | 0.00 | 74 | 1011.8 |
| 20260507053311 | 12 | 48 | 6.4 | 9.7 | 0.00 | 0.00 | 0.00 | 74 | 1011.8 |
| 20260507052810 | 12 | 36 | 4.8 | 11.3 | 0.00 | 0.00 | 0.00 | 74 | 1011.6 |
| 20260507052307 | 12 | 52 | 6.4 | 14.5 | 0.00 | 0.00 | 0.00 | 74 | 1011.7 |
| 20260507051804 | 12 | 48 | 8.0 | 11.3 | 0.00 | 0.00 | 0.00 | 74 | 1011.7 |
| 20260507051301 | 12 | 24 | 3.2 | 14.5 | 0.00 | 0.00 | 0.00 | 75 | 1011.7 |
| 20260507050753 | 12 | 41 | 4.8 | 14.5 | 0.00 | 0.00 | 0.00 | 75 | 1011.4 |
| 20260507050249 | 12 | 58 | 3.2 | 11.3 | 0.00 | 0.00 | 0.00 | 76 | 1011.6 |
| 20260507045746 | 12 | 58 | 6.4 | 6.4 | 0.00 | 0.00 | 0.00 | 77 | 1011.5 |
| 20260507045243 | 12 | 56 | 6.4 | 11.3 | 0.00 | 0.00 | 0.00 | 78 | 1011.4 |
| 20260507044740 | 12 | 53 | 3.2 | 6.4 | 0.00 | 0.00 | 0.00 | 78 | 1011.3 |
| 20260507044236 | 12 | 26 | 4.8 | 6.4 | 0.00 | 0.00 | 0.00 | 78 | 1011.1 |
| 20260507043732 | 12 | 50 | 3.2 | 4.8 | 0.00 | 0.00 | 0.00 | 79 | 1011.2 |
| 20260507043229 | 12 | 35 | 6.4 | 9.7 | 0.00 | 0.00 | 0.00 | 79 | 1011.1 |
| 20260507042725 | 11 | 71 | 6.4 | 9.7 | 0.00 | 0.00 | 0.00 | 80 | 1011.3 |
| 20260507042225 | 11 | 48 | 3.2 | 9.7 | 0.00 | 0.00 | 0.00 | 80 | 1011.4 |
| 20260507041723 | 12 | 66 | 4.8 | 9.7 | 0.00 | 0.00 | 0.00 | 80 | 1011.1 |
| 20260507041220 | 12 | 48 | 6.4 | 12.9 | 0.00 | 0.00 | 0.00 | 77 | 1011.3 |
| 20260507040717 | 12 | 47 | 6.4 | 11.3 | 0.00 | 0.00 | 0.00 | 78 | 1011.3 |
| 20260507040213 | 12 | 347 | 9.7 | 16.1 | 0.00 | 0.00 | 0.00 | 78 | 1011.3 |
| 20260507035709 | 12 | 75 | 9.7 | 16.1 | 0.00 | 0.08 | 0.08 | 78 | 1011.2 |
| 20260507035205 | 12 | 49 | 6.4 | 11.3 | 0.00 | 0.08 | 0.08 | 78 | 1010.6 |
| 20260507034702 | 12 | 62 | 3.2 | 4.8 | 0.00 | 0.08 | 0.08 | 79 | 1010.7 |
| 20260507034159 | 12 | 45 | 8.0 | 16.1 | 0.00 | 0.08 | 0.08 | 78 | 1011.5 |
| 20260507033658 | 12 | 57 | 11.3 | 22.5 | 0.00 | 0.08 | 0.08 | 79 | 1011.7 |
| 20260507033154 | 13 | 67 | 6.4 | 14.5 | 0.00 | 0.08 | 0.08 | 79 | 1011.7 |
| 20260507032652 | 13 | 42 | 8.0 | 11.3 | 0.00 | 0.08 | 0.08 | 79 | 1011.6 |
| 20260507032147 | 13 | 68 | 1.6 | 3.2 | 0.00 | 0.08 | 0.08 | 78 | 1010.9 |
| 20260507031645 | 13 | 81 | 3.2 | 4.8 | 0.00 | 0.08 | 0.08 | 78 | 1010.7 |
| 20260507031141 | 13 | 48 | 4.8 | 6.4 | 0.00 | 0.08 | 0.08 | 79 | 1011.0 |
| 20260507030638 | 13 | 82 | 6.4 | 11.3 | 0.00 | 0.08 | 0.08 | 79 | 1011.2 |
| 20260507030136 | 13 | 52 | 3.2 | 4.8 | 0.00 | 0.08 | 0.08 | 79 | 1011.2 |
| 20260507025633 | 13 | 64 | 4.8 | 6.4 | 0.00 | 0.08 | 0.08 | 79 | 1011.2 |
| 20260507025129 | 13 | 33 | 4.8 | 6.4 | 0.00 | 0.08 | 0.08 | 79 | 1011.6 |
| 20260507024628 | 13 | 18 | 4.8 | 12.9 | 0.00 | 0.08 | 0.08 | 79 | 1011.7 |
| 20260507024124 | 13 | 48 | 6.4 | 9.7 | 0.00 | 0.08 | 0.08 | 79 | 1011.2 |
| 20260507023620 | 13 | 44 | 4.8 | 6.4 | 0.00 | 0.08 | 0.08 | 78 | 1010.7 |
| 20260507023118 | 14 | 49 | 3.2 | 4.8 | 0.00 | 0.08 | 0.08 | 78 | 1011.0 |
| 20260507022614 | 14 | 37 | 6.4 | 11.3 | 0.00 | 0.08 | 0.08 | 78 | 1011.0 |
| 20260507022110 | 14 | 35 | 3.2 | 4.8 | 0.00 | 0.08 | 0.08 | 78 | 1010.6 |
| 20260507021606 | 14 | 72 | 4.8 | 6.4 | 0.00 | 0.08 | 0.08 | 78 | 1010.6 |
| 20260507021102 | 14 | 51 | 1.6 | 4.8 | 0.00 | 0.08 | 0.08 | 77 | 1010.7 |
| 20260507020601 | 14 | 54 | 3.2 | 3.2 | 0.00 | 0.08 | 0.08 | 78 | 1010.8 |
| 20260507020056 | 14 | 67 | 3.2 | 4.8 | 0.00 | 0.08 | 0.08 | 77 | 1010.4 |
| 20260507015555 | 14 | 71 | 3.2 | 6.4 | 0.00 | 0.08 | 0.08 | 77 | 1011.0 |
| 20260507015052 | 14 | 29 | 3.2 | 6.4 | 0.00 | 0.08 | 0.08 | 77 | 1010.6 |
| 20260507014549 | 14 | 47 | 4.8 | 11.3 | 0.00 | 0.08 | 0.08 | 77 | 1010.5 |
| 20260507014044 | 15 | 48 | 8.0 | 11.3 | 0.00 | 0.08 | 0.08 | 76 | 1010.0 |
| 20260507013541 | 15 | 47 | 6.4 | 9.7 | 0.00 | 0.08 | 0.08 | 76 | 1010.2 |
| 20260507013039 | 15 | 55 | 1.6 | 1.6 | 0.00 | 0.08 | 0.08 | 77 | 1010.1 |
| 20260507012536 | 15 | 44 | 1.6 | 3.2 | 0.00 | 0.08 | 0.08 | 77 | 1010.2 |
| 20260507012027 | 15 | 99 | 3.2 | 4.8 | 0.00 | 0.08 | 0.08 | 76 | 1010.2 |
| 20260507011524 | 15 | 68 | 3.2 | 9.7 | 0.00 | 0.08 | 0.08 | 76 | 1010.3 |
| 20260507011020 | 15 | 61 | 4.8 | 4.8 | 0.00 | 0.08 | 0.08 | 77 | 1010.4 |
| 20260507010514 | 15 | 65 | 3.2 | 4.8 | 0.00 | 0.08 | 0.08 | 77 | 1010.4 |
| 20260507010006 | 15 | 44 | 1.6 | 3.2 | 0.00 | 0.08 | 0.08 | 79 | 1010.2 |
| 20260507005503 | 15 | 85 | 0.0 | 1.6 | 0.00 | 0.08 | 0.08 | 78 | 1010.2 |
| 20260507004959 | 15 | 67 | 3.2 | 4.8 | 0.00 | 0.08 | 0.08 | 77 | 1009.8 |
| 20260507004456 | 15 | 58 | 3.2 | 4.8 | 0.00 | 0.08 | 0.08 | 78 | 1009.8 |
| 20260507003954 | 15 | 48 | 3.2 | 6.4 | 0.00 | 0.08 | 0.08 | 78 | 1009.5 |
| 20260507003448 | 15 | 21 | 4.8 | 4.8 | 0.00 | 0.08 | 0.08 | 79 | 1009.6 |
| 20260507002943 | 15 | 46 | 3.2 | 12.9 | 0.00 | 0.08 | 0.08 | 78 | 1009.9 |